FW8690 Weather Reports


time (UTC)temp
F
wind
direction
speed
knots
gust
knots
rain 1hr
in
rain 24hr
in
rain mn
in
humidity
%
barometer
mb
20260506145504 61 0 0.0 0.0 0.00 0.00 0.00 49 1013.4
20260506145003 61 0 0.0 0.0 0.00 0.00 0.00 51 1013.5
20260506144504 60 0 0.0 0.0 0.00 0.00 0.00 51 1013.5
20260506144213 60 0 0.0 0.0 0.00 0.00 0.00 53 1013.6
20260506143504 60 0 0.0 0.0 0.00 0.00 0.00 53 1013.6
20260506143213 60 0 0.0 0.0 0.00 0.00 0.00 54 1013.6
20260506142503 59 0 0.0 0.0 0.00 0.00 0.00 55 1013.5
20260506142004 59 308 0.0 0.9 0.00 0.00 0.00 57 1013.7
20260506141504 58 308 0.0 0.9 0.00 0.00 0.00 57 1013.9
20260506141213 58 0 0.0 0.0 0.00 0.00 0.00 59 1014.0
20260506140503 58 0 0.0 0.0 0.00 0.00 0.00 56 1014.0
20260506140004 58 0 0.0 0.0 0.00 0.00 0.00 58 1014.0
20260506135714 58 0 0.0 0.0 0.00 0.00 0.00 56 1014.1
20260506135213 58 0 0.0 0.0 0.00 0.00 0.00 57 1014.1
20260506134505 57 0 0.0 0.0 0.00 0.00 0.00 58 1014.1
20260506134003 57 0 0.0 0.0 0.00 0.00 0.00 56 1014.3
20260506133503 57 0 0.0 0.0 0.00 0.00 0.00 57 1014.3
20260506133213 57 0 0.0 0.0 0.00 0.00 0.00 56 1014.2
20260506132503 58 0 0.0 0.0 0.00 0.00 0.00 59 1014.3
20260506132003 57 0 0.0 0.0 0.00 0.00 0.00 60 1014.3
20260506131503 57 0 0.0 0.0 0.00 0.00 0.00 58 1014.3
20260506131004 57 0 0.0 0.0 0.00 0.00 0.00 58 1014.3
20260506130504 57 0 0.0 0.0 0.00 0.00 0.00 59 1014.3
20260506130004 56 0 0.0 0.0 0.00 0.00 0.00 58 1014.3
20260506125714 56 0 0.0 0.0 0.00 0.00 0.00 60 1014.2
20260506125004 56 0 0.0 0.0 0.00 0.00 0.00 60 1014.2
20260506124503 56 0 0.0 0.0 0.00 0.00 0.00 61 1014.2
20260506124213 56 0 0.0 0.0 0.00 0.00 0.00 62 1014.3
20260506123503 55 0 0.0 0.0 0.00 0.00 0.00 63 1014.2
20260506123213 55 0 0.0 0.0 0.00 0.00 0.00 62 1014.3
20260506122504 55 0 0.0 0.0 0.00 0.00 0.00 62 1014.3
20260506122004 55 0 0.0 0.0 0.00 0.00 0.00 63 1014.3
20260506121504 55 0 0.0 0.0 0.00 0.00 0.00 64 1014.4
20260506121004 54 0 0.0 0.0 0.00 0.00 0.00 65 1014.3
20260506120503 54 0 0.0 0.0 0.00 0.00 0.00 62 1014.4
20260506120214 54 0 0.0 0.0 0.00 0.00 0.00 63 1014.4
20260506115504 54 0 0.0 0.0 0.00 0.00 0.00 65 1014.4
20260506115003 54 0 0.0 0.0 0.00 0.00 0.00 66 1014.5
20260506114503 54 0 0.0 0.0 0.00 0.00 0.00 67 1014.4
20260506114004 54 0 0.0 0.0 0.00 0.00 0.00 68 1014.5
20260506113504 53 0 0.0 0.0 0.00 0.00 0.00 69 1014.5
20260506113005 53 0 0.0 0.0 0.00 0.00 0.00 69 1014.5
20260506112505 53 0 0.0 0.0 0.00 0.00 0.00 68 1014.5
20260506112005 53 0 0.0 0.0 0.00 0.00 0.00 68 1014.5
20260506111504 53 0 0.0 0.0 0.00 0.00 0.00 69 1014.6
20260506111004 53 0 0.0 0.0 0.00 0.00 0.00 70 1014.5
20260506110503 53 0 0.0 0.0 0.00 0.00 0.00 70 1014.6
20260506110003 53 0 0.0 0.0 0.00 0.00 0.00 70 1014.6
20260506105504 53 0 0.0 0.0 0.00 0.00 0.00 70 1014.5
20260506105004 53 0 0.0 0.0 0.00 0.00 0.00 70 1014.5
20260506104504 53 0 0.0 0.0 0.00 0.00 0.00 70 1014.6
20260506104214 53 0 0.0 0.0 0.00 0.00 0.00 70 1014.5
20260506103503 52 0 0.0 0.0 0.00 0.00 0.00 70 1014.4
20260506103003 53 0 0.0 0.0 0.00 0.00 0.00 71 1014.3
20260506102503 52 0 0.0 0.0 0.00 0.00 0.00 72 1014.4
20260506102003 52 0 0.0 0.0 0.00 0.00 0.00 72 1014.5
20260506101503 52 0 0.0 0.0 0.00 0.00 0.00 72 1014.5
20260506101004 52 0 0.0 0.0 0.00 0.00 0.00 72 1014.5
20260506100504 51 0 0.0 0.0 0.00 0.00 0.00 72 1014.4
20260506100004 51 0 0.0 0.0 0.00 0.00 0.00 72 1014.4
20260506095503 51 0 0.0 0.0 0.00 0.00 0.00 73 1014.4
20260506095005 51 0 0.0 0.0 0.00 0.00 0.00 74 1014.4
20260506094505 51 0 0.0 0.0 0.00 0.00 0.00 75 1014.5
20260506094005 51 0 0.0 0.0 0.00 0.00 0.00 75 1014.4
20260506093503 51 0 0.0 0.0 0.00 0.00 0.00 76 1014.4
20260506093003 50 0 0.0 0.0 0.00 0.00 0.00 78 1014.3
20260506092504 50 0 0.0 0.0 0.00 0.00 0.00 79 1014.2
20260506092214 50 0 0.0 0.0 0.00 0.00 0.00 79 1014.2
20260506091504 50 0 0.0 0.0 0.00 0.00 0.00 80 1014.2
20260506091004 50 0 0.0 0.0 0.00 0.00 0.00 79 1014.2
20260506090504 50 0 0.0 0.0 0.00 0.00 0.00 80 1014.1
20260506090005 50 0 0.0 0.0 0.00 0.00 0.00 80 1014.3
20260506085503 49 0 0.0 0.0 0.00 0.00 0.00 80 1014.3
20260506085003 49 0 0.0 0.0 0.00 0.00 0.00 80 1014.2
20260506084714 49 0 0.0 0.0 0.00 0.00 0.00 80 1014.2
20260506084004 49 0 0.0 0.0 0.00 0.00 0.00 80 1014.2
20260506083503 49 0 0.0 0.0 0.00 0.00 0.00 80 1014.2
20260506083004 49 0 0.0 0.0 0.00 0.00 0.00 80 1014.2
20260506082504 48 0 0.0 0.0 0.00 0.00 0.00 80 1014.3
20260506082003 48 0 0.0 0.0 0.00 0.00 0.00 81 1014.2
20260506081504 48 0 0.0 0.0 0.00 0.00 0.00 81 1014.2
20260506081003 48 0 0.0 0.0 0.00 0.00 0.00 81 1014.1
20260506080503 48 0 0.0 0.0 0.00 0.00 0.00 80 1014.1
20260506080213 48 0 0.0 0.0 0.00 0.00 0.00 80 1014.1
20260506073503 48 0 0.0 0.0 0.00 0.00 0.00 82 1014.0
20260506073003 48 0 0.0 0.0 0.00 0.00 0.00 83 1013.8
20260506072503 48 0 0.0 0.0 0.00 0.00 0.00 83 1013.8
20260506072003 48 0 0.0 0.0 0.00 0.00 0.00 83 1013.8
20260506071504 48 0 0.0 0.0 0.00 0.00 0.00 84 1013.8
20260506071004 48 0 0.0 0.0 0.00 0.00 0.00 84 1013.7
20260506070504 48 0 0.0 0.0 0.00 0.00 0.00 84 1013.6
20260506062504 48 0 0.0 0.0 0.00 0.00 0.00 84 1013.5
20260506062004 48 0 0.0 0.0 0.00 0.00 0.00 84 1013.5
20260506061504 48 0 0.0 0.0 0.00 0.00 0.00 84 1013.5
20260506061004 48 0 0.0 0.0 0.00 0.00 0.00 84 1013.6
20260506060504 48 0 0.0 0.0 0.00 0.00 0.00 84 1013.5
20260506051003 48 0 0.0 0.0 0.00 0.00 0.00 84 1013.2
20260506050503 48 0 0.0 0.0 0.00 0.00 0.00 84 1013.2
20260506044504 48 0 0.0 0.0 0.00 0.00 0.00 84 1013.2
20260506044003 48 0 0.0 0.0 0.00 0.00 0.00 84 1013.1
20260506043503 48 0 0.0 0.0 0.00 0.00 0.00 84 1013.1
20260506043003 48 0 0.0 0.0 0.00 0.00 0.00 84 1013.1
20260506042713 48 0 0.0 0.0 0.00 0.00 0.00 84 1013.1
20260506042214 48 0 0.0 0.0 0.00 0.00 0.00 84 1013.1
20260506041715 49 0 0.0 0.0 0.00 0.00 0.00 84 1013.0
20260506041004 49 0 0.0 0.0 0.00 0.00 0.00 84 1013.1
20260506040504 49 0 0.0 0.0 0.00 0.00 0.00 84 1013.1
20260506040004 49 0 0.0 0.0 0.00 0.00 0.00 83 1013.0
20260506035504 49 0 0.0 0.0 0.00 0.00 0.00 83 1013.1
20260506035004 49 0 0.0 0.0 0.00 0.00 0.00 83 1013.0
20260506034503 49 0 0.0 0.0 0.00 0.00 0.00 83 1013.1
20260506034213 49 0 0.0 0.0 0.00 0.00 0.00 83 1013.0
20260506033503 49 0 0.0 0.0 0.00 0.00 0.00 83 1013.1
20260506033213 49 0 0.0 0.0 0.00 0.00 0.00 83 1013.2
20260506032504 48 0 0.0 0.0 0.00 0.00 0.00 83 1013.1
20260506032213 49 0 0.0 0.0 0.00 0.00 0.00 83 1013.1
20260506031714 48 0 0.0 0.0 0.00 0.00 0.00 83 1013.1
20260506031004 48 0 0.0 0.0 0.00 0.00 0.00 83 1013.2
20260506030504 48 0 0.0 0.0 0.00 0.00 0.00 83 1013.1
20260506030213 48 0 0.0 0.0 0.00 0.00 0.00 83 1013.2
20260506025503 48 0 0.0 0.0 0.00 0.00 0.00 83 1013.1
20260506025004 48 0 0.0 0.0 0.00 0.00 0.00 83 1013.2
20260506024504 48 0 0.0 0.0 0.00 0.00 0.00 83 1013.2
20260506024004 48 0 0.0 0.0 0.00 0.00 0.00 83 1013.2
20260506023503 48 0 0.0 0.0 0.00 0.00 0.00 83 1013.2
20260506023004 48 0 0.0 0.0 0.00 0.00 0.00 83 1013.2
20260506022714 48 0 0.0 0.0 0.00 0.00 0.00 83 1013.2
20260506022003 49 0 0.0 0.0 0.00 0.00 0.00 83 1013.1
20260506021503 49 0 0.0 0.0 0.00 0.00 0.00 83 1013.2
20260506021003 49 0 0.0 0.0 0.00 0.00 0.00 83 1013.2
20260506020714 49 0 0.0 0.0 0.00 0.00 0.00 82 1013.2
20260506020004 49 0 0.0 0.0 0.00 0.00 0.00 82 1013.2
20260506015504 49 0 0.0 0.0 0.00 0.00 0.00 82 1013.1
20260506015215 49 0 0.0 0.0 0.00 0.00 0.00 82 1013.1
20260506014504 49 0 0.0 0.0 0.00 0.00 0.00 82 1013.1
20260506014003 49 0 0.0 0.0 0.00 0.00 0.00 82 1013.2
20260506013503 49 0 0.0 0.0 0.00 0.00 0.00 82 1013.1
20260506013003 49 0 0.0 0.0 0.00 0.00 0.00 82 1013.2
20260506012503 49 0 0.0 0.0 0.00 0.00 0.00 82 1013.3
20260506012004 49 0 0.0 0.0 0.00 0.00 0.00 82 1013.4
20260506011504 49 0 0.0 0.0 0.00 0.00 0.00 82 1013.2
20260506011214 49 0 0.0 0.0 0.00 0.00 0.00 82 1013.4
20260506010503 49 0 0.0 0.0 0.00 0.00 0.00 81 1013.3
20260506010004 49 0 0.0 0.0 0.00 0.00 0.00 81 1013.3
20260506005713 49 0 0.0 0.0 0.00 0.00 0.00 81 1013.3
20260506005003 49 0 0.0 0.0 0.00 0.00 0.00 81 1013.3
20260506004713 49 0 0.0 0.0 0.00 0.00 0.00 81 1013.4
20260506004004 49 0 0.0 0.0 0.00 0.00 0.00 81 1013.4
20260506003504 49 0 0.0 0.0 0.00 0.00 0.00 81 1013.4
20260506003004 49 0 0.0 0.0 0.00 0.00 0.00 81 1013.4
20260506002504 49 0 0.0 0.0 0.00 0.00 0.00 81 1013.4
20260506002004 49 0 0.0 0.0 0.00 0.00 0.00 81 1013.4
20260506001503 49 0 0.0 0.0 0.00 0.00 0.00 81 1013.6
20260506001003 49 0 0.0 0.0 0.00 0.00 0.00 81 1013.5
20260506000503 49 0 0.0 0.0 0.00 0.00 0.00 81 1013.5
20260506000004 49 0 0.0 0.0 0.00 0.00 0.00 81 1013.4
20260505235504 49 0 0.0 0.0 0.00 0.00 0.00 81 1013.4
20260505235004 49 0 0.0 0.0 0.00 0.00 0.00 81 1013.4
20260505234504 49 0 0.0 0.0 0.00 0.00 0.00 81 1013.4
20260505234214 49 0 0.0 0.0 0.00 0.00 0.00 81 1013.4
20260505233503 49 0 0.0 0.0 0.00 0.00 0.00 81 1013.5
20260505233003 50 0 0.0 0.0 0.00 0.00 0.00 81 1013.6
20260505232503 50 0 0.0 0.0 0.00 0.00 0.00 81 1013.5
20260505232003 50 0 0.0 0.0 0.00 0.00 0.00 81 1013.5
20260505231503 50 0 0.0 0.0 0.00 0.00 0.00 80 1013.5
20260505231004 50 0 0.0 0.0 0.00 0.00 0.00 80 1013.7
20260505230504 50 0 0.0 0.0 0.00 0.00 0.00 80 1013.6
20260505230004 50 0 0.0 0.0 0.00 0.00 0.00 80 1013.7
20260505225504 50 0 0.0 0.0 0.00 0.00 0.00 80 1013.8
20260505225004 50 0 0.0 0.0 0.00 0.00 0.00 80 1013.7
20260505224504 50 0 0.0 0.0 0.00 0.00 0.00 79 1013.7
20260505224213 50 0 0.0 0.0 0.00 0.00 0.00 79 1013.6
20260505223503 50 0 0.0 0.0 0.00 0.00 0.00 79 1013.6
20260505223213 50 0 0.0 0.0 0.00 0.00 0.00 79 1013.7
20260505222504 50 0 0.0 0.0 0.00 0.00 0.00 78 1013.7
20260505222213 50 0 0.0 0.0 0.00 0.00 0.00 78 1013.7
20260505221504 50 0 0.0 0.0 0.00 0.00 0.00 78 1013.7
20260505221004 50 0 0.0 0.0 0.00 0.00 0.00 78 1013.7
20260505220503 50 0 0.0 0.0 0.00 0.00 0.00 78 1013.7
20260505220004 50 0 0.0 0.0 0.00 0.00 0.00 78 1013.7
20260505215714 50 0 0.0 0.0 0.00 0.00 0.00 77 1013.7
20260505215003 50 0 0.0 0.0 0.00 0.00 0.00 77 1013.7
20260505214503 50 0 0.0 0.0 0.00 0.00 0.00 77 1013.7
20260505214213 51 0 0.0 0.0 0.00 0.00 0.00 77 1013.7
20260505213504 51 0 0.0 0.0 0.00 0.00 0.00 76 1013.7
20260505213213 51 0 0.0 0.0 0.00 0.00 0.00 76 1013.7
20260505212504 51 0 0.0 0.0 0.00 0.00 0.00 76 1013.6
20260505212003 51 0 0.0 0.0 0.00 0.00 0.00 76 1013.7
20260505211714 51 0 0.0 0.0 0.00 0.00 0.00 76 1013.7
20260505211003 51 0 0.0 0.0 0.00 0.00 0.00 75 1013.7
20260505210503 51 0 0.0 0.0 0.00 0.00 0.00 75 1013.6
20260505210004 51 0 0.0 0.0 0.00 0.00 0.00 75 1013.6
20260505205504 51 0 0.0 0.0 0.00 0.00 0.00 75 1013.7
20260505205004 52 0 0.0 0.0 0.00 0.00 0.00 75 1013.6
20260505204504 52 0 0.0 0.0 0.00 0.00 0.00 74 1013.7
20260505204004 52 0 0.0 0.0 0.00 0.00 0.00 74 1013.6
20260505203714 52 0 0.0 0.0 0.00 0.00 0.00 74 1013.7
20260505203004 52 0 0.0 0.0 0.00 0.00 0.00 74 1013.6
20260505202503 52 0 0.0 0.0 0.00 0.00 0.00 74 1013.6
20260505202004 52 0 0.0 0.0 0.00 0.00 0.00 73 1013.5
20260505201504 52 0 0.0 0.0 0.00 0.00 0.00 73 1013.5
20260505201004 52 0 0.0 0.0 0.00 0.00 0.00 73 1013.5
20260505200504 53 0 0.0 0.0 0.00 0.00 0.00 73 1013.5
20260505200004 53 0 0.0 0.0 0.00 0.00 0.00 73 1013.4
20260505195504 53 0 0.0 0.0 0.00 0.00 0.00 73 1013.3
20260505195004 53 0 0.0 0.0 0.00 0.00 0.00 73 1013.3
20260505194504 53 0 0.0 0.0 0.00 0.00 0.00 73 1013.2
20260505194003 53 0 0.0 0.0 0.00 0.00 0.00 73 1013.1
20260505193503 53 0 0.0 0.0 0.00 0.00 0.00 73 1013.2
20260505193003 53 0 0.0 0.0 0.00 0.00 0.00 73 1013.1
20260505192504 53 0 0.0 0.0 0.00 0.00 0.00 73 1013.0
20260505192214 53 308 0.0 0.0 0.00 0.00 0.00 72 1013.0
20260505191504 54 308 0.0 0.0 0.00 0.00 0.00 72 1013.1
20260505191214 54 0 0.0 0.0 0.00 0.00 0.00 72 1013.2
20260505190713 54 0 0.0 0.0 0.00 0.00 0.00 72 1013.2
20260505190214 54 0 0.0 0.0 0.00 0.00 0.00 72 1013.1
20260505185503 54 0 0.0 0.0 0.00 0.00 0.00 72 1013.0
20260505185003 54 0 0.0 0.0 0.00 0.00 0.00 72 1013.0
20260505184503 54 0 0.0 0.0 0.00 0.00 0.00 72 1013.0
20260505184004 54 0 0.0 0.0 0.00 0.00 0.00 72 1013.0
20260505183504 54 0 0.0 0.0 0.00 0.00 0.00 72 1012.9
20260505183004 55 0 0.0 0.0 0.00 0.00 0.00 71 1012.9
20260505182504 55 0 0.0 0.0 0.00 0.00 0.00 71 1012.9
20260505182214 55 0 0.0 0.0 0.00 0.00 0.00 71 1012.8
20260505181504 55 0 0.0 0.0 0.00 0.00 0.00 70 1012.9
20260505181003 56 0 0.0 0.0 0.00 0.00 0.00 69 1012.9
20260505180503 56 0 0.0 0.0 0.00 0.00 0.00 68 1012.9
20260505180003 56 0 0.0 0.0 0.00 0.00 0.00 67 1012.8
20260505175504 57 0 0.0 0.0 0.00 0.00 0.00 67 1012.7
20260505175004 57 0 0.0 0.0 0.00 0.00 0.00 67 1012.7
20260505174504 57 0 0.0 0.0 0.00 0.00 0.00 66 1012.7
20260505174004 57 0 0.0 0.0 0.00 0.00 0.00 65 1012.7
20260505173715 57 0 0.0 0.0 0.00 0.00 0.00 65 1012.7
20260505173003 58 0 0.0 0.0 0.00 0.00 0.00 65 1012.7
20260505172504 58 0 0.0 0.0 0.00 0.00 0.00 63 1012.8
20260505172003 58 0 0.0 0.0 0.00 0.00 0.00 63 1012.9
20260505171504 59 0 0.0 0.0 0.00 0.00 0.00 63 1012.8
20260505171004 59 0 0.0 0.0 0.00 0.00 0.00 61 1012.9
20260505170505 59 0 0.0 0.0 0.00 0.00 0.00 61 1013.0
20260505170004 59 0 0.0 0.0 0.00 0.00 0.00 62 1013.0
20260505165504 59 0 0.0 0.0 0.00 0.00 0.00 62 1013.0
20260505165004 60 0 0.0 0.0 0.00 0.00 0.00 60 1012.9
20260505164504 60 0 0.0 0.0 0.00 0.00 0.00 60 1013.0
20260505164003 60 0 0.0 0.0 0.00 0.00 0.00 58 1013.1
20260505163503 60 308 0.0 0.9 0.00 0.00 0.00 58 1013.0
20260505163213 60 308 0.0 0.9 0.00 0.00 0.00 60 1012.9
20260505162503 60 0 0.0 0.0 0.00 0.00 0.00 58 1012.9
20260505162003 60 0 0.0 0.0 0.00 0.00 0.00 59 1012.9
20260505161503 60 0 0.0 0.0 0.00 0.00 0.00 60 1013.0
20260505161213 60 0 0.0 0.0 0.00 0.00 0.00 61 1012.9
20260505160503 60 0 0.0 0.0 0.00 0.00 0.00 62 1013.0
20260505153213 60 0 0.0 0.0 0.00 0.00 0.00 58 1013.1
20260505152504 61 0 0.0 0.0 0.00 0.00 0.00 59 1013.0
20260505152003 61 0 0.0 0.0 0.00 0.00 0.00 57 1013.0
20260505151714 61 0 0.0 0.0 0.00 0.00 0.00 56 1013.0
20260505151004 62 0 0.0 0.0 0.00 0.00 0.00 57 1013.0
20260505150503 62 0 0.0 0.0 0.00 0.00 0.00 56 1013.0